Location: Devore Heights
(34.2372°N, 117.4156°W)
Time: 01:56:25
(UTC+00:00)

SR - Pass Details

Date: 18 September 2024
Orbit: 578 x 855 km, 66.7° (Epoch: 02 October)

Event Time Altitude Azimuth Distance (km) Brightness Sun altitude
Rises 18:57:23 0° 180° (S) 2,846 ? 55.5°
Reaches altitude 10° 18:59:54 10° 168° (SSE) 1,918 ? 55.7°
Maximum altitude 19:03:31 27° 110° (ESE) 1,129 ? 55.9°
Drops below altitude 10° 19:07:05 10° 52° (NE) 1,891 ? 56.1°
Sets 19:09:32 0° 40° (NE) 2,796 ? 56.3°
